Language selection

Features

My Weather Profile Weather Topics  | 

Ungava - eastern half: Past 24 Hour Conditions

 

Fort Severn Airport

12:00 AM EST 22 November 2019
Disclaimer

This table is a summary of hourly weather conditions for the past 24 hours.
Please note that these observations might not always be representative of weather conditions over their associated marine area.

Date / Time
(EST)
Wind(knots) Conditions Visibility(km) Pressure(kPa) Air tempC) Relative humidity(%) Dew pointC) Wind Chill
22 November 2019
0:00 WSW 7 Clear 16 100.9 -19 80 -22 -27
21 November 2019
23:00 WSW 9 Clear 16 101.0 -18 78 -21 -28
22:00 W 10 gust 17 Cloudy 16 101.0 -16 75 -20 -25
21:00 W 12 gust 20 Light Snow 16 101.1 -15 73 -18 -24
20:00 W 13 gust 19 Light Snow 16 101.1 -14 74 -18 -24
19:00 W 13 gust 21 Light Snow 16 101.1 -14 76 -17 -23
18:00 W 13 gust 21 Light Snow 16 101.1 -13 78 -17 -23
17:00 W 12 gust 21 Light Snow 16 101.2 -13 86 -15 -22
16:00 W 12 gust 20 Light Snow 16 101.1 -13 87 -15 -23
15:00 W 16 gust 22 Light Snow 16 101.1 -13 86 -15 -24
14:00 W 14 gust 21 Light Snow 16 101.1 -13 85 -15 -23
13:00 W 13 gust 20 Light Snow 16 101.1 -13 84 -15 -23
12:00 W 13 gust 20 Light Snow 16 101.2 -13 84 -16 -23
11:00 W 17 Light Snow 16 101.2 -13 84 -15 -24
10:00 W 12 gust 23 Light Snow 16 101.2 -13 87 -14 -22
9:00 W 15 gust 22 Light Snow 16 101.2 -12 89 -13 -22
8:00 W 15 gust 20 Light Snow 16 101.1 -12 90 -13 -21
7:00 W 13 gust 19 Light Snow 16 101.1 -11 90 -12 -20
6:00 W 15 gust 24 Light Snow 16 101.1 -11 90 -12 -20
5:00 W 14 gust 22 Light Snow 10 101.1 -10 91 -12 -19
4:00 W 17 gust 25 Light Snow 13 101.1 -10 89 -11 -19
3:00 W 16 gust 23 Light Snow 11 101.1 -9 89 -11 -18
2:00 W 13 gust 23 Light Snow 16 101.1 -8 90 -10 -16
1:00 W 12 gust 18 Light Snow 16 101.0 -8 90 -10 -16
0:00 WSW 13 gust 18 Light Snow 16 101.0 -8 88 -10 -16

Zoom-in to make a selection

Map of Hudson - Hudson Bay marine weather areas Arviat Airport Baker Lake Airport Chesterfield Inlet Airport Coral Harbour Airport Rankin Inlet Airport Sanikiluaq Airport Whale Cove Airport Cape Dorset Airport Iqaluit Airport Wager Bay Kimmirut Airport Churchill Airport Fort Severn Airport Peawanuck Airport Moosonee Airport Eastmain Airport La Grande Rivière Airport Waskaganish Airport Wemindji Airport Akulivik Airport Inukjuak Airport Ivujivik Airport Kuujjuarapik Airport Puvirnituq Airport Umiujaq Airport Aupaluk Airport Kangiqsujuaq Airport Kangirsuk Airport Kangiqsualujjuaq Airport Kuujjuaq Airport Quaqtaq Airport Salluit Airport Tasiujaq Airport Cape Kakkiviak
Legend:
buoy Buoy
land station Land Station

Hudson - Hudson Bay Area

Another Region

What we are doing

Date modified: